Wind_Speed
34 34 31 25 26 27 26 25 24 26 26 23 23 21 21 21 22 23 23 25 27 29 26 19 20 25 24 25 26 24 18 16 18 16 17 20 20 12 9 7 9 8 16 23 29 39 40 36 40 51 54 51 50 53
33 33 30 25 24 26 25 25 24 26 24 24 23 22 23 23 22 22 24 25 27 27 26 20 21 22 26 20 26 29 31 26 20 17 13 16 18 17 12 7 8 7 9 16 26 31 35 39 44 47 48 52 49 45
32 31 28 24 23 25 23 24 22 24 24 22 23 22 22 20 20 23 23 25 27 28 27 24 21 23 23 23 24 25 30 35 28 27 19 18 13 10 6 7 4 7 7 9 20 27 34 41 46 47 49 47 49 48
30 30 27 23 22 23 22 22 21 20 22 20 20 21 21 20 21 23 24 26 27 28 28 29 26 22 23 26 23 23 28 32 35 30 29 21 19 13 12 10 3 1 5 11 10 20 35 39 45 47 47 42 36 44
29 28 25 21 21 21 20 19 19 20 19 19 20 19 17 19 21 22 24 25 26 28 29 28 25 26 26 26 26 25 24 23 32 28 25 26 18 15 15 13 11 5 1 8 12 17 31 35 38 42 42 39 41 39
29 27 24 19 19 18 18 17 18 19 18 19 20 19 19 20 20 22 23 24 25 25 26 25 24 24 26 27 27 24 21 22 25 26 24 22 27 20 16 15 13 11 8 5 8 16 23 29 36 38 40 40 38 44
27 26 23 18 16 15 16 16 17 17 17 19 20 20 20 20 19 21 22 23 24 25 23 22 22 23 24 26 26 25 21 20 24 25 23 24 24 20 21 10 12 11 10 7 5 2 14 13 19 31 30 35 38 48
25 24 21 17 15 13 14 14 15 16 16 18 20 21 22 22 21 20 20 21 22 23 23 22 21 21 23 24 26 28 26 22 18 22 23 22 21 21 20 19 7 10 10 9 8 6 8 14 18 20 25 33 32 31
23 23 20 16 15 12 12 12 13 15 16 18 20 23 23 22 23 22 21 21 21 22 23 22 21 21 22 23 25 26 27 26 22 20 20 20 19 18 19 19 21 9 5 5 7 6 1 5 13 20 22 30 31 29
22 21 19 14 15 14 13 12 13 15 17 19 20 22 24 25 24 21 21 20 19 19 21 22 22 22 22 22 23 24 26 27 21 22 22 20 19 18 16 16 16 18 17 4 2 3 2 5 10 11 18 27 30 46
21 22 19 13 14 16 15 13 14 16 18 20 22 23 24 24 23 21 21 21 21 21 22 23 23 22 22 23 23 25 24 24 20 20 23 21 19 19 18 16 15 14 13 16 12 2 4 6 10 14 12 16 38 46
20 21 15 13 14 16 14 13 14 16 19 21 22 23 24 24 22 21 21 23 23 22 24 25 24 25 25 22 26 27 27 20 19 24 24 20 19 20 21 21 19 16 14 12 9 14 7 6 7 8 11 11 25 43
19 20 12 13 14 14 14 12 12 15 19 21 22 24 24 24 23 20 20 24 26 28 27 29 29 28 25 24 24 25 19 15 23 22 23 21 21 20 21 22 21 18 15 13 12 7 9 11 5 8 9 12 16 20
19 13 10 11 12 12 12 11 13 16 20 24 26 25 25 25 23 21 22 24 30 39 32 28 34 31 33 26 21 22 22 23 21 20 18 19 21 24 25 24 23 21 18 16 13 11 9 8 10 10 12 12 14 17
13 9 8 9 10 10 11 12 13 14 17 24 28 25 23 24 24 22 24 26 31 31 34 34 33 35 38 20 20 17 21 20 20 19 20 21 24 27 26 25 24 23 20 17 15 15 12 11 10 9 10 12 12 13
6 6 7 7 8 10 10 12 14 16 20 27 23 23 23 22 23 27 28 24 21 25 27 26 36 48 27 18 19 21 19 19 20 22 23 26 27 26 25 24 23 21 20 19 16 14 14 13 12 12 12 12 14 17
3 3 4 7 8 9 12 14 18 19 20 23 23 23 23 25 26 29 26 23 23 28 29 30 27 27 17 29 28 24 18 21 24 25 26 26 26 23 22 20 19 18 18 17 18 17 15 13 14 15 14 15 15 17
1 2 3 5 7 9 12 15 20 22 23 23 23 25 27 29 29 31 36 30 25 32 23 28 27 24 24 20 26 24 26 27 26 25 23 22 21 21 19 19 18 17 17 17 16 18 17 17 15 15 17 17 17 17
1 2 4 6 8 9 11 15 18 23 25 28 27 25 26 25 25 27 33 33 36 31 26 25 23 18 19 21 24 27 26 23 23 21 21 22 22 21 20 20 18 18 17 17 18 19 19 17 17 18 16 17 17 18
1 1 4 5 8 7 11 15 19 20 24 27 27 27 28 30 30 31 33 35 32 27 25 25 20 21 22 24 24 22 22 22 23 24 26 25 25 23 22 22 21 21 21 21 20 20 21 22 19 18 17 18 17 16
1 3 4 6 6 7 12 16 19 23 26 27 27 27 28 31 32 32 31 29 27 26 27 26 25 24 22 20 20 23 24 25 25 26 26 27 27 26 25 23 23 25 27 27 27 28 26 24 22 22 22 20 20 19
1 2 3 7 8 8 12 16 20 23 25 25 27 27 28 29 30 32 30 27 28 28 27 23 21 20 21 22 24 24 26 28 29 29 29 29 30 31 30 30 33 33 31 28 26 24 25 25 26 23 22 22 23 22
2 1 2 5 5 8 12 16 18 20 23 25 26 29 31 31 32 32 29 29 28 25 22 21 22 23 23 24 26 29 31 31 31 31 31 31 32 34 36 35 31 26 24 21 18 17 18 18 20 23 23 22 21 22
3 3 5 7 6 8 12 14 16 20 23 24 27 31 32 33 35 31 29 30 27 20 21 23 25 25 25 27 30 31 30 30 30 31 32 34 36 40 37 27 21 16 13 11 10 8 7 5 9 15 18 20 20 19
4 5 4 4 4 7 11 14 18 20 23 24 27 30 33 33 35 35 32 31 25 19 22 25 27 27 27 27 28 29 29 30 31 33 35 35 38 40 35 28 22 18 16 10 4 2 2 3 7 7 9 11 16 18
5 7 2 1 2 6 10 15 17 20 23 24 27 30 32 33 35 35 32 30 25 18 21 24 27 27 27 28 29 29 29 30 31 33 35 35 37 37 34 34 32 28 22 17 11 7 6 3 2 3 2 5 9 12
7 3 1 1 2 6 10 14 18 20 23 25 27 30 33 34 34 33 32 29 27 19 17 21 25 27 28 29 29 28 28 29 30 32 34 37 35 37 35 32 30 29 28 25 22 17 12 10 9 8 7 6 6 6
8 6 3 2 3 6 10 14 17 20 22 24 27 29 30 31 31 32 32 29 27 25 19 18 22 25 28 29 29 29 26 26 28 30 32 34 37 36 35 35 33 29 27 26 24 21 18 15 13 11 9 7 6 5
6 5 5 4 4 6 9 13 16 20 22 23 26 28 29 27 27 29 30 30 28 27 25 21 20 22 25 28 28 28 28 26 26 27 28 30 32 34 37 36 34 34 33 31 27 23 21 19 18 16 14 12 10 9
5 5 5 4 5 7 9 12 15 18 20 21 22 25 30 29 26 27 29 30 30 28 28 25 21 20 21 24 27 27 28 29 26 24 26 27 28 29 30 32 34 35 34 32 31 30 29 28 25 22 19 16 14 12
5 6 5 5 6 8 8 10 12 15 17 18 18 21 28 31 27 25 26 29 29 29 28 27 25 22 20 21 23 26 26 26 27 26 24 24 25 26 27 28 28 29 30 30 30 30 30 29 27 25 23 21 20 18
3 3 3 4 5 7 9 10 11 14 16 17 17 19 25 28 28 25 24 26 28 29 29 27 26 25 22 20 20 22 24 25 24 24 25 25 25 26 27 27 28 28 28 28 28 27 27 26 25 25 24 23 22 21
4 2 2 5 6 8 10 12 11 13 16 18 19 19 21 25 26 25 22 23 25 26 27 28 26 25 25 23 21 21 21 22 22 22 21 22 24 25 27 28 29 30 30 30 30 29 28 28 27 26 24 23 22 21
Wind_Direction
342 343 344 347 348 349 352 356 0 6 2 358 3 8 1 1 357 359 9 13 10 9 10 14 20 24 25 28 32 23 354 329 340 356 3 1 351 341 344 349 348 263 256 241 229 224 220 213 215 217 218 221 223 222
340 340 341 344 345 346 349 355 356 1 3 8 6 5 360 359 5 11 10 9 10 8 7 9 9 13 16 16 20 33 31 24 15 16 11 355 345 347 328 327 346 316 260 243 224 221 218 200 207 211 212 217 220 220
339 339 339 340 342 344 348 352 355 5 2 2 3 6 11 15 12 8 8 12 12 11 14 16 13 7 17 14 11 11 15 22 21 24 21 7 346 337 333 286 40 305 294 248 229 217 211 200 200 206 211 216 217 217
336 339 337 337 339 341 346 352 353 358 4 11 14 7 4 9 9 9 8 11 15 14 15 20 19 13 9 13 7 6 7 13 14 15 19 7 349 337 322 303 337 25 264 259 232 220 204 205 199 203 210 215 206 213
333 338 337 334 337 341 346 350 356 360 4 4 4 8 9 3 2 2 2 8 16 15 15 19 17 19 17 14 16 12 16 360 2 10 15 15 6 341 334 333 314 353 145 219 213 221 204 203 200 202 208 212 215 205
331 335 336 331 336 340 344 349 357 360 4 8 9 7 1 357 358 357 357 2 11 11 12 13 15 17 19 17 14 15 22 8 9 13 13 12 17 14 342 339 347 356 357 29 204 214 211 207 208 201 202 207 205 198
328 332 335 327 332 337 342 349 355 1 1 4 3 359 357 352 352 354 353 355 3 4 3 359 2 7 12 12 12 14 14 14 345 6 12 15 16 10 7 337 348 354 18 47 45 123 174 210 221 220 221 231 228 207
325 331 333 321 323 330 337 347 353 356 353 353 356 355 354 348 345 347 349 350 355 354 351 346 351 355 360 3 10 9 10 14 8 4 8 15 11 7 6 17 8 2 20 46 51 81 195 210 223 233 242 233 228 197
324 331 334 317 316 316 326 334 342 346 345 346 348 348 349 349 344 343 344 343 345 344 341 337 339 347 348 348 351 0 360 3 3 1 358 359 2 5 6 10 8 22 29 30 28 39 80 205 220 204 215 238 245 233
324 330 332 314 316 309 309 320 326 332 335 338 341 342 342 345 346 342 338 337 333 331 330 337 336 337 339 339 339 344 351 356 356 354 353 348 339 338 345 352 2 1 1 35 89 356 253 251 253 249 240 220 215 204
322 330 327 314 319 316 308 309 315 321 325 330 333 337 339 344 344 341 334 334 333 333 330 326 331 333 336 332 332 334 336 344 347 349 346 338 331 328 326 331 330 335 348 348 355 156 152 171 229 239 254 211 201 198
323 329 318 315 321 326 323 313 319 324 328 327 328 331 334 338 340 338 338 338 330 332 333 334 331 329 329 328 327 328 327 326 340 343 339 339 337 337 332 327 322 320 315 323 340 340 334 149 164 230 232 222 206 198
326 325 313 320 326 333 328 326 341 342 337 336 333 331 333 337 339 340 348 346 350 343 340 336 335 330 326 319 333 332 326 328 339 335 335 336 336 338 336 333 332 325 313 303 302 307 313 310 207 179 200 217 223 208
324 317 320 324 334 336 334 347 349 346 346 341 340 337 334 333 333 339 341 341 337 333 331 342 335 330 322 315 328 332 323 340 340 337 332 332 329 331 331 328 326 321 320 310 292 284 281 280 281 225 197 192 205 215
318 316 321 339 339 338 348 354 348 348 350 351 347 341 343 338 336 332 333 329 328 312 345 331 328 323 321 332 336 335 336 340 344 341 335 331 326 326 327 321 318 316 313 309 307 288 270 260 257 257 247 217 212 210
310 315 346 350 348 352 352 351 346 338 326 337 346 347 342 338 339 341 341 333 324 325 322 323 330 315 318 333 331 342 343 342 337 331 327 325 324 323 320 316 312 310 306 305 301 299 283 265 256 245 243 233 224 220
308 353 8 353 357 357 360 355 353 349 345 347 345 349 346 338 332 330 326 324 321 328 333 332 328 333 319 348 355 353 347 339 332 329 328 329 329 329 323 320 318 316 311 301 295 290 291 277 252 249 243 234 228 217
360 53 12 353 2 11 13 17 11 8 3 355 346 339 338 340 338 332 331 322 319 348 333 330 336 332 338 354 347 340 339 337 337 337 339 340 336 333 329 323 317 312 308 308 301 291 283 280 275 252 238 238 236 232
131 34 360 8 27 25 32 29 18 18 20 9 360 353 347 345 345 350 350 335 322 348 342 346 348 346 336 342 340 340 339 344 344 344 340 337 336 334 329 327 326 323 318 308 295 289 284 279 274 267 260 247 233 230
157 8 6 30 36 26 28 15 7 12 10 5 0 357 357 353 349 350 347 335 344 349 353 355 355 350 345 342 343 348 348 345 343 341 340 340 336 331 325 319 315 314 310 306 301 296 287 276 270 267 260 254 248 239
98 8 11 23 32 46 28 28 19 9 1 5 7 1 359 354 354 352 346 348 354 356 355 354 354 357 0 1 358 351 349 350 349 347 344 341 339 333 327 319 313 310 308 301 293 285 276 275 272 265 259 255 254 249
125 22 41 43 80 42 22 12 8 2 360 5 9 7 2 358 357 355 358 357 360 360 359 3 11 12 5 1 358 360 0 357 353 349 345 342 340 335 330 322 316 311 305 299 291 284 277 267 261 260 259 253 250 250
173 156 69 69 66 38 26 16 5 360 358 5 8 7 7 6 3 360 359 1 1 7 17 18 14 7 8 7 8 4 0 357 351 351 349 345 341 337 332 324 318 312 304 297 289 282 279 271 258 250 249 250 248 248
187 158 117 97 69 42 23 13 5 2 1 6 9 8 9 9 7 8 7 7 8 21 23 18 15 11 10 7 3 1 359 359 358 356 354 353 351 349 347 347 345 338 327 312 300 280 270 233 250 241 235 237 240 241
183 176 146 116 62 32 22 7 6 3 6 6 8 9 10 10 12 12 11 12 17 25 22 22 18 16 13 8 5 5 6 6 5 4 4 3 3 6 12 15 12 8 5 8 3 15 44 205 217 238 237 226 226 232
164 175 215 125 44 30 19 12 9 6 6 6 9 10 9 11 13 13 12 14 19 24 21 18 14 12 11 10 10 11 12 12 12 12 12 12 14 17 23 29 33 35 37 42 50 76 79 89 78 139 203 206 208 212
155 151 133 60 19 14 17 13 12 10 7 6 8 8 7 11 12 11 12 15 18 17 14 13 12 13 14 14 14 14 15 16 17 18 19 19 22 25 27 30 33 38 41 46 52 61 75 83 87 90 103 126 144 168
223 236 234 295 343 9 13 7 10 9 8 7 9 8 5 8 8 9 10 13 15 17 14 9 8 11 13 14 15 15 16 19 22 23 24 27 29 30 33 38 40 40 43 47 52 55 60 65 72 77 83 91 103 118
220 222 230 271 325 360 1 359 3 4 4 4 7 7 8 7 6 9 11 13 14 13 15 11 7 8 12 13 13 15 17 19 22 24 26 29 32 35 38 40 42 45 49 52 54 56 59 61 64 68 72 75 75 75
213 227 247 292 328 345 345 350 355 354 358 2 9 14 16 13 7 7 10 12 13 12 13 13 8 6 7 11 13 16 20 22 22 23 25 28 30 32 35 38 42 46 49 51 52 55 59 62 64 64 65 65 66 64
224 238 261 300 317 327 332 339 344 345 352 357 1 1 5 7 8 5 9 11 12 11 10 11 10 6 4 7 10 15 18 20 24 27 28 29 31 33 34 36 39 40 43 45 49 52 54 57 58 59 61 62 63 64
217 249 282 309 320 328 330 328 331 339 347 351 347 349 354 358 5 4 7 10 11 9 10 9 10 9 7 5 7 12 17 20 24 29 35 38 40 40 42 41 41 41 42 44 46 49 50 52 54 55 57 58 59 60
199 226 311 334 327 328 329 326 329 338 346 345 343 344 346 350 359 4 7 10 11 10 10 9 8 8 10 10 10 10 14 18 22 30 37 41 45 46 46 45 45 45 45 46 47 47 48 50 52 53 53 53 52 52
Height
5800 5793 5786 5780 5776 5772 5766 5761 5756 5750 5745 5740 5736 5733 5729 5724 5719 5715 5711 5707 5702 5696 5691 5686 5680 5675 5669 5664 5658 5652 5646 5641 5636 5632 5627 5622 5616 5614 5610 5608 5605 5602 5601 5601 5603 5605 5611 5620 5628 5635 5644 5653 5661 5672
5798 5791 5784 5779 5774 5770 5765 5760 5755 5749 5745 5740 5736 5732 5728 5723 5719 5715 5711 5707 5701 5696 5691 5685 5680 5674 5669 5664 5659 5653 5647 5642 5635 5630 5626 5621 5616 5611 5608 5606 5603 5600 5598 5596 5597 5601 5605 5611 5618 5626 5635 5644 5653 5664
5795 5788 5782 5776 5772 5768 5763 5758 5754 5749 5744 5740 5735 5731 5727 5723 5719 5715 5711 5707 5702 5696 5690 5684 5678 5674 5669 5664 5659 5653 5648 5642 5635 5629 5624 5620 5617 5613 5608 5605 5602 5599 5595 5593 5593 5596 5599 5605 5611 5618 5627 5636 5646 5655
5790 5785 5779 5773 5769 5766 5761 5757 5753 5748 5744 5739 5735 5731 5727 5723 5719 5715 5711 5707 5701 5696 5690 5684 5679 5673 5669 5664 5658 5653 5648 5642 5636 5629 5624 5620 5616 5614 5610 5607 5602 5599 5595 5593 5594 5594 5596 5601 5605 5613 5622 5632 5639 5648
5787 5781 5776 5771 5767 5763 5760 5755 5751 5747 5743 5739 5735 5731 5727 5724 5719 5715 5711 5706 5701 5697 5690 5685 5680 5674 5669 5663 5658 5652 5646 5643 5638 5632 5627 5623 5617 5613 5610 5606 5601 5597 5594 5594 5594 5593 5595 5599 5605 5611 5619 5627 5635 5644
5783 5778 5772 5768 5764 5761 5758 5754 5749 5746 5742 5738 5734 5731 5727 5724 5719 5714 5710 5706 5701 5696 5692 5687 5682 5676 5670 5664 5658 5653 5647 5644 5640 5635 5630 5624 5619 5614 5610 5606 5602 5597 5593 5591 5592 5592 5594 5598 5603 5609 5615 5622 5629 5637
5778 5774 5769 5765 5762 5759 5756 5752 5748 5744 5741 5738 5734 5730 5726 5722 5717 5713 5710 5705 5699 5695 5691 5688 5683 5677 5672 5666 5660 5654 5648 5643 5641 5636 5631 5625 5620 5617 5612 5608 5603 5600 5595 5593 5592 5592 5594 5598 5602 5608 5613 5618 5620 5627
5774 5770 5765 5762 5759 5757 5754 5750 5747 5743 5740 5736 5732 5728 5724 5720 5716 5711 5707 5703 5698 5693 5689 5685 5682 5677 5671 5666 5661 5655 5649 5644 5641 5636 5632 5627 5623 5619 5614 5609 5606 5601 5598 5595 5593 5593 5593 5597 5602 5605 5606 5611 5612 5618
5769 5765 5762 5759 5756 5754 5751 5748 5745 5742 5738 5735 5731 5727 5723 5719 5715 5710 5705 5701 5696 5692 5687 5683 5679 5674 5669 5664 5659 5654 5649 5643 5639 5635 5631 5628 5624 5621 5616 5611 5607 5603 5601 5597 5594 5593 5593 5594 5595 5599 5604 5603 5607 5611
5765 5761 5757 5756 5753 5751 5748 5746 5742 5739 5736 5733 5729 5726 5721 5717 5713 5708 5703 5699 5693 5689 5685 5681 5675 5670 5667 5661 5657 5653 5647 5642 5638 5634 5629 5626 5622 5619 5616 5613 5608 5606 5601 5599 5597 5595 5594 5592 5593 5594 5595 5597 5601 5608
5760 5757 5754 5752 5749 5747 5745 5743 5739 5736 5734 5730 5727 5723 5719 5714 5709 5704 5699 5695 5691 5686 5681 5675 5671 5666 5662 5659 5654 5649 5644 5640 5636 5632 5627 5623 5619 5616 5613 5610 5607 5604 5602 5600 5596 5594 5594 5593 5593 5592 5591 5593 5598 5605
5756 5752 5750 5748 5746 5745 5742 5739 5735 5733 5731 5727 5724 5720 5715 5710 5706 5701 5696 5691 5686 5682 5677 5672 5668 5663 5658 5653 5649 5645 5641 5636 5633 5628 5623 5619 5616 5611 5608 5606 5604 5602 5599 5598 5597 5594 5589 5591 5591 5590 5590 5591 5595 5600
5751 5749 5746 5745 5743 5741 5739 5735 5733 5730 5727 5723 5720 5716 5712 5708 5703 5698 5693 5688 5682 5677 5672 5667 5663 5658 5653 5649 5645 5641 5638 5633 5629 5624 5619 5615 5612 5608 5605 5601 5598 5596 5595 5593 5592 5594 5593 5589 5588 5589 5590 5590 5592 5595
5747 5745 5743 5742 5741 5739 5736 5733 5731 5728 5725 5721 5717 5713 5709 5703 5699 5695 5690 5684 5679 5672 5666 5661 5657 5651 5645 5641 5639 5637 5634 5629 5624 5620 5616 5612 5608 5605 5601 5597 5594 5591 5589 5588 5587 5588 5589 5589 5588 5587 5588 5590 5591 5591
5743 5742 5740 5739 5739 5736 5734 5731 5729 5726 5723 5719 5714 5709 5704 5700 5695 5690 5685 5680 5673 5670 5663 5659 5653 5647 5642 5638 5635 5632 5628 5624 5620 5617 5613 5609 5605 5600 5596 5592 5589 5586 5584 5583 5582 5581 5583 5586 5585 5585 5585 5585 5587 5589
5740 5740 5738 5738 5736 5734 5732 5730 5727 5724 5720 5717 5711 5706 5701 5697 5693 5688 5680 5675 5670 5665 5659 5653 5649 5639 5637 5634 5631 5626 5622 5619 5616 5613 5608 5603 5599 5595 5591 5587 5583 5581 5579 5577 5576 5576 5576 5577 5580 5582 5581 5583 5583 5584
5738 5737 5737 5736 5734 5732 5731 5728 5725 5722 5718 5713 5709 5704 5699 5694 5689 5683 5677 5672 5666 5660 5654 5648 5644 5640 5634 5628 5624 5621 5619 5616 5612 5607 5602 5597 5592 5588 5584 5581 5578 5575 5573 5571 5570 5569 5570 5572 5574 5574 5576 5578 5579 5581
5736 5736 5735 5734 5733 5731 5730 5727 5723 5719 5715 5711 5706 5701 5696 5691 5685 5679 5673 5667 5662 5655 5648 5644 5639 5635 5631 5625 5622 5619 5615 5611 5606 5601 5596 5592 5588 5584 5580 5576 5573 5571 5568 5566 5565 5563 5563 5563 5564 5568 5571 5572 5573 5575
5734 5734 5733 5733 5732 5730 5729 5726 5722 5718 5714 5710 5705 5699 5693 5688 5683 5677 5670 5664 5657 5650 5645 5640 5635 5632 5629 5624 5621 5616 5611 5606 5602 5597 5594 5589 5585 5581 5576 5572 5569 5566 5563 5561 5559 5558 5557 5557 5557 5558 5560 5563 5567 5570
5733 5733 5732 5731 5730 5730 5728 5725 5722 5718 5714 5710 5704 5698 5693 5687 5680 5673 5666 5660 5653 5646 5642 5638 5634 5630 5626 5621 5617 5612 5608 5604 5599 5594 5589 5585 5580 5575 5571 5567 5563 5560 5558 5556 5554 5552 5550 5550 5551 5551 5552 5554 5556 5559
5731 5731 5730 5730 5729 5729 5727 5724 5721 5718 5714 5709 5704 5697 5692 5685 5678 5671 5664 5657 5651 5646 5641 5636 5631 5627 5623 5619 5615 5611 5606 5601 5596 5591 5586 5581 5575 5570 5565 5561 5557 5554 5550 5547 5545 5543 5543 5542 5543 5544 5545 5547 5548 5552
5730 5730 5730 5729 5728 5727 5726 5723 5721 5717 5713 5709 5704 5698 5692 5685 5678 5671 5663 5657 5652 5646 5640 5635 5631 5627 5623 5619 5614 5609 5604 5598 5593 5588 5582 5576 5570 5564 5557 5552 5546 5542 5539 5535 5533 5532 5531 5532 5533 5535 5536 5538 5540 5542
5729 5729 5729 5728 5728 5727 5726 5723 5720 5717 5713 5708 5703 5697 5691 5684 5677 5670 5663 5657 5651 5645 5641 5637 5633 5629 5624 5619 5614 5609 5603 5598 5591 5585 5579 5572 5565 5558 5550 5541 5533 5528 5524 5522 5522 5521 5521 5521 5523 5525 5528 5531 5533 5535
5728 5728 5728 5728 5727 5726 5725 5723 5720 5716 5712 5707 5702 5697 5690 5683 5677 5670 5664 5657 5652 5646 5643 5639 5634 5629 5624 5619 5614 5608 5603 5597 5591 5584 5577 5569 5561 5551 5539 5531 5524 5520 5517 5515 5514 5515 5515 5515 5516 5518 5521 5524 5526 5529
5727 5728 5729 5727 5727 5726 5724 5722 5719 5716 5711 5707 5702 5697 5690 5684 5677 5670 5664 5658 5652 5648 5645 5640 5635 5630 5626 5621 5615 5610 5603 5597 5591 5584 5576 5568 5559 5549 5538 5530 5524 5518 5514 5512 5511 5511 5513 5514 5515 5516 5517 5519 5521 5524
5725 5727 5727 5726 5726 5725 5724 5722 5719 5715 5711 5707 5702 5696 5691 5684 5677 5671 5665 5660 5654 5650 5646 5642 5638 5633 5628 5623 5617 5611 5605 5599 5593 5586 5578 5570 5562 5553 5545 5537 5530 5524 5518 5515 5513 5513 5515 5516 5516 5516 5516 5517 5519 5522
5725 5725 5726 5725 5725 5724 5723 5721 5718 5714 5710 5706 5701 5696 5690 5683 5678 5673 5667 5661 5656 5652 5649 5645 5641 5636 5630 5625 5619 5613 5608 5602 5596 5589 5583 5575 5567 5559 5551 5544 5538 5533 5528 5523 5520 5518 5517 5517 5517 5517 5517 5518 5519 5521
5723 5724 5724 5724 5724 5723 5722 5719 5717 5713 5710 5706 5701 5696 5691 5685 5681 5675 5670 5664 5658 5654 5649 5646 5642 5637 5632 5627 5621 5616 5610 5605 5600 5594 5588 5581 5574 5566 5559 5553 5546 5540 5536 5532 5529 5526 5524 5523 5521 5521 5521 5521 5521 5522
5721 5722 5723 5722 5722 5721 5720 5718 5715 5712 5709 5706 5702 5697 5692 5687 5682 5676 5671 5665 5660 5655 5650 5646 5643 5639 5634 5629 5624 5619 5613 5608 5603 5598 5593 5587 5581 5575 5568 5562 5555 5550 5545 5540 5537 5534 5531 5529 5528 5527 5526 5525 5525 5525
5720 5720 5721 5720 5720 5719 5718 5716 5713 5711 5708 5706 5702 5698 5693 5688 5683 5678 5672 5667 5661 5656 5651 5647 5644 5640 5636 5632 5628 5623 5617 5612 5606 5601 5597 5592 5587 5582 5576 5571 5565 5560 5555 5550 5546 5543 5540 5537 5535 5533 5532 5531 5530 5529
5718 5718 5718 5719 5718 5717 5716 5714 5712 5710 5708 5705 5702 5698 5694 5690 5684 5679 5673 5668 5663 5658 5654 5649 5645 5641 5638 5634 5630 5626 5621 5616 5611 5606 5601 5596 5592 5587 5583 5578 5574 5569 5564 5560 5556 5552 5548 5546 5543 5541 5540 5538 5537 5535
5717 5717 5717 5717 5717 5716 5714 5712 5711 5709 5707 5705 5701 5698 5694 5690 5685 5680 5675 5670 5665 5660 5656 5652 5647 5643 5639 5635 5632 5628 5624 5619 5615 5610 5606 5601 5597 5593 5589 5585 5581 5577 5572 5568 5564 5561 5557 5554 5552 5549 5547 5545 5543 5542
5716 5716 5716 5716 5715 5714 5712 5711 5710 5708 5706 5703 5700 5697 5693 5690 5686 5681 5675 5670 5666 5662 5658 5654 5650 5646 5642 5637 5633 5629 5626 5622 5619 5615 5611 5607 5603 5599 5596 5592 5588 5584 5580 5576 5572 5568 5565 5562 5559 5556 5554 5551 5549 5547